This demonstration page uses our WeatherBlox Daily Observations layout. Learn more.

Left ArrowRight Arrow

Hourly Observations for September 17, 2018

Temp ( °F °C ) Dew Point ( °F °C ) Humidity (%) Winds ( mph kmh ) Pressure ( in mb ) Visibility ( mi km ) Precip ( " mm )
12:53 am 00:53 Cloudy 75 23.9 68 20 79 79 NE 5 7 29.98 1015 10 16 0.00 0.00
1:53 am 01:53 Mostly Cloudy 75 23.9 68 20 79 79 NE 3 6 29.96 1014 10 16 0.00 0.00
2:53 am 02:53 Cloudy 75 23.9 68 20 79 79 NE 7 11 29.94 1014 10 16 0.00 0.00
3:53 am 03:53 Cloudy 74 23.3 68 20 82 82 NE 9 15 29.93 1014 10 16 0.00 0.03
4:53 am 04:53 Mostly Cloudy 73 22.8 68 20 84 84 NE 7 11 29.91 1013 10 16 0.00 0.03
5:53 am 05:53 Clear 73 22.8 67 19.4 81 81 NE 7 11 29.91 1013 10 16 0.00 0.00
6:53 am 06:53 Clear with Light Rain 72 22.2 67 19.4 84 84 ENE 8 13 29.91 1013 10 16 0.00 0.03
7:53 am 07:53 Cloudy with Light Rain 71 21.7 68 20 90 90 NE 6 9 29.91 1013 10 16 0.02 0.51
8:53 am 08:53 Cloudy with Light Rain 71 21.7 68 20 90 90 NNE 5 7 29.92 1013 10 16 0.00 0.03
9:53 am 09:53 Cloudy with Light Rain 71 21.7 69 20.6 94 94 N 3 6 29.92 1013 7 11 0.05 1.27
10:53 am 10:53 Cloudy with Light Rain 72 22.2 69 20.6 91 91 N 5 7 29.92 1013 10 16 0.02 0.51
11:53 am 11:53 Cloudy with Light Rain 73 22.8 70 21.1 90 90 NW 6 9 29.92 1013 10 16 0.00 0.03
12:53 pm 12:53 Cloudy 77 25 71 21.7 82 82 NW 7 11 29.92 1013 10 16 0.00 0.03
1:53 pm 13:53 Mostly Cloudy 78 25.6 70 21.1 76 76 NNW 8 13 29.90 1012 10 16 0.00 0.00
2:53 pm 14:53 Mostly Cloudy 80 26.7 71 21.7 74 74 W 8 13 29.88 1012 10 16 0.00 0.00
3:53 pm 15:53 Mostly Cloudy 79 26.1 71 21.7 77 77 W 5 7 29.86 1011 10 16 0.00 0.00
4:53 pm 16:53 Mostly Sunny 83 28.3 70 21.1 65 65 NW 7 11 29.85 1011 10 16 0.00 0.00
5:53 pm 17:53 Sunny 83 28.3 68 20 61 61 NNW 3 6 29.85 1011 10 16 0.00 0.00
6:53 pm 18:53 Mostly Cloudy 79 26.1 72 22.2 79 79 SW 3 6 29.86 1011 10 16 0.00 0.00
7:53 pm 19:53 Partly Cloudy 76 24.4 72 22.2 88 88 WSW 3 6 29.87 1012 10 16 0.00 0.00
8:53 pm 20:53 Mostly Clear 73 22.8 71 21.7 94 94 Calm 29.89 1012 10 16 0.00 0.00
9:53 pm 21:53 Partly Cloudy 71 21.7 69 20.6 94 94 Calm 29.91 1013 10 16 0.00 0.00
10:53 pm 22:53 Clear 69 20.6 67 19.4 93 93 Calm 29.92 1013 10 16 0.00 0.00
11:53 pm 23:53 Clear 69 20.6 67 19.4 93 93 WNW 3 6 29.93 1014 10 16 0.00 0.00

Powered by AerisWeather